This demonstration page uses our WeatherBlox Daily Observations layout. Learn more.

Left ArrowRight Arrow

41.86663, -103.66717

Hourly Observations for April 7, 2017

Temp ( °F °C ) Dew Point ( °F °C ) Humidity (%) Winds ( mph kmh ) Pressure ( in mb ) Visibility ( mi km ) Precip ( " mm )
12:53 am 00:53 Clear 46 7.8 30 -1.1 54 54 ESE 9 15 29.92 1013 10 16.0934 N/A
1:53 am 01:53 Clear 46 7.8 31 -0.6 56 56 ESE 14 22 29.9 1012 10 16.0934 N/A
2:53 am 02:53 Clear 44 6.7 31 -0.6 60 60 E 9 15 29.87 1012 10 16.0934 N/A
3:53 am 03:53 Clear 42 5.6 32 undefined 68 68 E 12 19 29.85 1011 10 16.0934 N/A
4:53 am 04:53 Clear 42 5.6 32 undefined 68 68 E 10 17 29.85 1011 10 16.0934 N/A
5:53 am 05:53 Clear 43 6.1 33 0.6 68 68 ESE 10 17 29.84 1011 10 16.0934 N/A
6:53 am 06:53 Sunny 43 6.1 34 1.1 71 71 E 10 17 29.85 1011 10 16.0934 N/A
7:53 am 07:53 Sunny 44 6.7 34 1.1 68 68 ESE 10 17 29.86 1011 10 16.0934 N/A
8:53 am 08:53 Mostly Sunny 49 9.4 36 2.2 61 61 E 12 19 29.83 1010 10 16.0934 N/A
9:53 am 09:53 Sunny 54 12.2 37 2.8 53 53 SE 8 13 29.82 1010 10 16.0934 N/A
10:53 am 10:53 Sunny 62 16.7 37 2.8 40 40 SE 6 9 29.76 1008 10 16.0934 N/A
11:53 am 11:53 Sunny 70 21.1 36 2.2 29 29 S 6 9 29.72 1006 10 16.0934 N/A
12:53 pm 12:53 Sunny 76 24.4 33 0.6 21 21 N N/A 29.68 1005 9 14.48406 N/A
1:53 pm 13:53 Sunny 80 26.7 34 1.1 19 19 VRB 7 11 29.64 1004 10 16.0934 N/A
2:53 pm 14:53 Sunny 83 28.3 27 -2.8 13 13 W 17 28 29.6 1003 10 16.0934 N/A
3:53 pm 15:53 Sunny 82 27.8 27 -2.8 13 13 W 13 20 29.59 1002 10 16.0934 N/A
4:53 pm 16:53 Sunny 81 27.2 28 -2.2 14 14 W 10 17 29.58 1002 10 16.0934 N/A
5:53 pm 17:53 Sunny 79 26.1 30 -1.1 17 17 WNW 14 22 29.59 1002 10 16.0934 N/A
6:53 pm 18:53 Partly Cloudy 70 21.1 34 1.1 27 27 WNW 8 13 29.62 1003 10 16.0934 N/A
7:53 pm 19:53 Clear 64 17.8 35 1.7 34 34 NW 5 7 29.64 1004 10 16.0934 N/A
8:53 pm 20:53 Clear 62 16.7 35 1.7 37 37 N N/A 29.64 1004 10 16.0934 N/A
9:53 pm 21:53 Clear 61 16.1 37 2.8 41 41 WSW 6 9 29.64 1004 10 16.0934 N/A
10:53 pm 22:53 Clear 64 17.8 34 1.1 33 33 VRB 6 9 29.6 1002 10 16.0934 N/A
11:53 pm 23:53 Clear 57 13.9 36 2.2 45 45 WNW 10 17 29.58 1002 10 16.0934 N/A

Powered by AerisWeather